DW7002 Weather Reports


Display with metric or nautical units.
time (UTC)temp
F
wind
direction
speed
MPH
gust
MPH
rain 1hr
in
rain 24hr
in
rain mn
in
humidity
%
barometer
mb
20260905190130 82 27 1.0 5.0 0.00 0.10 0.00 71 1013.3
20260905185126 85 28 4.0 7.0 0.00 0.10 0.00 67 1013.0
20260905184120 90 35 4.0 6.0 0.00 0.10 0.00 72 1012.7
20260905183131 91 193 0.0 2.0 0.00 0.10 0.00 68 1012.4
20260905182125 92 219 0.0 1.0 0.00 0.10 0.00 66 1012.4
20260905181122 93 219 0.0 0.0 0.00 0.10 0.00 66 1012.6
20260905180114 93 219 0.0 0.0 0.00 0.10 0.00 65 1012.8
20260905175125 94 219 0.0 0.0 0.00 0.10 0.00 66 1013.1
20260905174122 94 219 0.0 2.0 0.00 0.10 0.00 62 1013.1
20260905173134 93 246 0.0 1.0 0.00 0.10 0.00 66 1013.5
20260905172127 93 223 0.0 0.0 0.00 0.10 0.00 66 1013.9
20260905171121 93 223 0.0 1.0 0.00 0.10 0.00 65 1014.0
20260905170118 93 198 0.0 2.0 0.00 0.10 0.00 63 1014.1
20260905165130 93 257 0.0 4.0 0.00 0.10 0.00 63 1014.3
20260905164143 93 186 0.0 1.0 0.00 0.10 0.00 62 1014.4
20260905163119 91 255 0.0 4.0 0.00 0.10 0.00 65 1014.4
20260905162132 91 253 0.0 2.0 0.00 0.10 0.00 68 1014.5
20260905161146 91 252 0.0 2.0 0.00 0.10 0.00 67 1014.6
20260905160138 90 240 0.0 2.0 0.00 0.10 0.00 71 1014.7
20260905155129 90 246 0.0 2.0 0.00 0.10 0.00 69 1014.9
20260905154127 89 257 0.0 4.0 0.00 0.10 0.00 68 1014.9
20260905153121 89 251 0.0 4.0 0.00 0.10 0.00 68 1015.1
20260905152115 88 250 0.0 2.0 0.00 0.10 0.00 72 1015.0
20260905151132 87 269 0.0 2.0 0.00 0.10 0.00 74 1015.2
20260905150125 86 270 0.0 2.0 0.00 0.10 0.00 74 1015.2
20260905145136 86 263 0.0 2.0 0.00 0.10 0.00 75 1015.3
20260905144130 85 261 1.0 4.0 0.00 0.10 0.00 76 1015.3
20260905143127 84 269 0.0 1.0 0.00 0.10 0.00 78 1015.3
20260905142121 84 269 0.0 1.0 0.00 0.10 0.00 79 1015.3
20260905141114 83 269 0.0 1.0 0.00 0.10 0.00 78 1015.1
20260905140130 82 264 0.0 1.0 0.00 0.10 0.00 80 1015.2
20260905135120 82 282 0.0 1.0 0.00 0.10 0.00 81 1015.2
20260905134114 81 284 0.0 1.0 0.00 0.10 0.00 83 1015.1
20260905133128 80 221 0.0 1.0 0.00 0.10 0.00 83 1015.1
20260905132126 79 286 0.0 2.0 0.00 0.10 0.00 85 1015.2
20260905131118 78 288 0.0 2.0 0.00 0.10 0.00 87 1015.3
20260905130152 76 232 0.0 0.0 0.00 0.10 0.00 90 1015.3
20260905125122 75 232 0.0 0.0 0.00 0.10 0.00 92 1015.3
20260905124118 74 232 0.0 0.0 0.00 0.10 0.00 93 1015.4
20260905123131 73 232 0.0 0.0 0.00 0.10 0.00 94 1015.5
20260905122123 72 223 0.0 0.0 0.00 0.10 0.00 95 1015.4
20260905121120 72 213 0.0 0.0 0.00 0.10 0.00 96 1015.4
20260905120131 71 213 0.0 0.0 0.00 0.10 0.00 96 1015.3
20260905115123 71 213 0.0 0.0 0.00 0.10 0.00 95 1015.2
20260905114116 71 213 0.0 0.0 0.00 0.10 0.00 95 1014.9
20260905113115 71 211 0.0 0.0 0.00 0.10 0.00 95 1014.7
20260905112128 71 211 0.0 0.0 0.00 0.10 0.00 95 1014.7
20260905111120 71 211 0.0 0.0 0.00 0.10 0.00 95 1014.7
20260905110117 71 211 0.0 0.0 0.00 0.10 0.00 95 1014.5
20260905105148 71 211 0.0 0.0 0.00 0.10 0.00 95 1014.5
20260905104120 71 211 0.0 0.0 0.00 0.10 0.00 95 1014.5
20260905103134 71 211 0.0 0.0 0.00 0.10 0.00 95 1014.4
20260905102131 71 211 0.0 0.0 0.00 0.10 0.00 95 1014.3
20260905101125 71 211 0.0 0.0 0.00 0.10 0.00 94 1014.3
20260905100138 71 211 0.0 0.0 0.00 0.10 0.00 94 1014.2
20260905095149 72 211 0.0 0.0 0.00 0.10 0.00 95 1014.2
20260905094125 72 211 0.0 0.0 0.00 0.10 0.00 95 1014.1
20260905093140 72 211 0.0 0.0 0.00 0.10 0.00 95 1014.2
20260905092154 72 211 0.0 0.0 0.00 0.10 0.00 94 1014.2
20260905091125 72 211 0.0 0.0 0.00 0.10 0.00 94 1014.3
20260905090142 72 211 0.0 0.0 0.00 0.10 0.00 94 1014.3
20260905085133 72 211 0.0 0.0 0.00 0.10 0.00 94 1014.2
20260905084127 72 211 0.0 0.0 0.00 0.10 0.00 94 1014.2
20260905083142 72 211 0.0 0.0 0.00 0.10 0.00 94 1014.4
20260905082137 72 211 0.0 1.0 0.00 0.10 0.00 94 1014.4
20260905081131 72 211 0.0 0.0 0.00 0.10 0.00 94 1014.5
20260905080125 72 211 0.0 0.0 0.00 0.10 0.00 94 1014.6
20260905075137 72 211 0.0 0.0 0.00 0.10 0.00 94 1014.7
20260905074133 72 211 0.0 0.0 0.00 0.10 0.00 94 1014.9
20260905073126 72 211 0.0 1.0 0.00 0.10 0.00 94 1015.1
20260905072120 72 211 0.0 0.0 0.00 0.10 0.00 94 1015.2
20260905071115 72 211 0.0 0.0 0.00 0.10 0.00 94 1015.2
20260905070151 72 211 0.0 0.0 0.00 0.10 0.00 94 1015.5
20260905065121 72 211 0.0 0.0 0.00 0.10 0.00 94 1015.6
20260905064116 72 211 0.0 0.0 0.00 0.10 0.00 94 1015.4
20260905063130 72 211 0.0 0.0 0.00 0.10 0.00 94 1015.4
20260905062146 72 211 0.0 0.0 0.00 0.10 0.00 94 1015.6
20260905061119 72 211 0.0 0.0 0.00 0.10 0.00 93 1015.7
20260905060132 72 211 0.0 0.0 0.00 0.10 0.00 93 1015.8
20260904223127 80 34 9.0 16.0 0.00 0.00 0.00 71 1016.7
20260904222118 86 5 2.0 3.0 0.00 0.00 0.00 65 1016.7
20260904221151 90 26 4.0 8.0 0.00 0.00 0.00 61 1016.5
20260904220142 92 202 0.0 0.0 0.00 0.00 0.00 65 1015.7
20260904215116 93 202 0.0 0.0 0.00 0.00 0.00 63 1015.1
20260904214130 94 202 0.0 0.0 0.00 0.00 0.00 62 1015.1
20260904213123 95 202 0.0 1.0 0.00 0.00 0.00 58 1015.1
20260904212117 95 235 0.0 2.0 0.00 0.00 0.00 59 1015.2
20260904211114 95 214 0.0 2.0 0.00 0.00 0.00 56 1015.4
20260904210126 95 180 0.0 4.0 0.00 0.00 0.00 59 1015.5
20260904205138 95 163 0.0 1.0 0.00 0.00 0.00 58 1015.6
20260904204115 95 165 1.0 4.0 0.00 0.00 0.00 57 1015.5
20260904203148 96 265 0.0 1.0 0.00 0.00 0.00 57 1015.2
20260904202141 96 265 0.0 4.0 0.00 0.00 0.00 54 1015.2
20260904201132 97 264 1.0 4.0 0.00 0.00 0.00 53 1015.1
20260904200124 98 249 0.0 5.0 0.00 0.00 0.00 54 1015.5
20260904195117 98 223 0.0 2.0 0.00 0.00 0.00 55 1015.8
20260904194129 98 108 0.0 4.0 0.00 0.00 0.00 53 1015.9
20260904193122 97 174 1.0 5.0 0.00 0.00 0.00 55 1016.1
20260904192120 97 171 1.0 4.0 0.00 0.00 0.00 56 1016.2
20260904191155 97 250 0.0 2.0 0.00 0.00 0.00 57 1016.3